Lid_Strength_Index
9 9 10 10 9 9 9 8 10 8 10 7 6 6 6 5 5 5 5 5 4 4 3 3 3 2 2 1 1 1 1 1 1 1 0 0 0 0 0 -0 -0 -0 -0 -0
10 8 8 10 9 8 8 8 8 8 9 6 6 6 6 6 6 6 5 5 4 4 3 3 3 2 2 2 1 1 1 1 1 1 1 0 0 0 0 0 0 0 0 0
12 9 9 11 9 8 8 8 8 10 7 6 7 7 6 6 6 6 5 5 4 4 3 3 3 2 2 2 1 1 1 1 1 1 1 1 0 1 1 1 0 1 0 0
12 11 16 8 7 7 8 7 7 7 7 6 6 5 5 4 5 5 5 4 4 3 3 2 2 2 2 1 1 1 1 1 1 1 1 1 1 1 1 1 1 1 1 0
13 13 11 9 8 8 9 8 6 7 6 6 5 5 5 4 4 4 4 3 3 3 2 2 2 2 2 2 2 2 2 1 1 1 1 1 1 1 1 1 1 1 0 0
12 15 16 9 7 6 6 11 6 6 6 6 6 8 6 4 4 4 3 3 3 2 2 2 2 1 2 2 2 2 2 1 1 1 1 1 1 1 1 1 1 1 1 0
12 14 11 8 7 6 12 11 6 6 5 6 7 5 4 3 3 3 3 3 2 2 3 2 2 2 2 2 2 1 1 1 1 1 1 1 0 0 1 1 1 1 1 0
12 14 15 7 7 11 8 6 6 5 5 5 5 4 4 4 4 3 3 3 3 3 3 2 2 2 2 2 1 1 1 1 1 1 0 0 1 1 1 1 1 2 2 2
12 11 7 6 7 5 5 6 5 5 5 5 5 5 4 4 4 3 3 3 2 3 3 2 2 1 2 2 1 1 1 1 1 1 1 0 1 1 1 1 2 2 2 2
10 8 7 6 5 5 5 5 4 4 4 4 5 4 4 4 4 4 3 3 3 3 3 3 2 1 1 1 1 1 1 1 1 1 1 1 2 2 3 2 2 2 2 2
9 7 7 6 5 5 4 4 4 4 4 4 4 5 4 4 4 3 3 3 3 3 3 3 2 1 1 1 1 1 2 1 1 1 1 2 3 4 3 5 6 3 3 3
10 7 8 8 5 4 5 5 4 4 4 3 4 4 4 4 4 3 4 3 3 3 3 2 2 1 1 0 1 1 2 2 2 2 2 2 3 3 9 10 11 11 11 5
7 5 5 5 5 4 5 4 4 4 4 4 3 3 4 4 3 4 3 3 3 3 2 2 2 2 1 1 1 1 2 2 2 2 2 3 3 2 3 6 11 11 11 11
4 4 6 5 6 4 4 4 4 3 3 3 3 3 3 4 3 3 3 3 2 2 3 3 2 2 1 0 1 1 1 4 1 1 2 2 2 2 2 3 3 3 9 8
5 4 5 4 4 4 4 4 4 4 4 4 3 3 3 4 4 3 3 2 2 2 3 2 2 2 1 1 1 1 1 1 1 1 1 2 1 1 1 2 2 2 1 6
5 4 5 5 5 4 4 4 5 4 4 4 4 3 3 3 3 2 2 2 3 3 3 3 2 1 1 1 1 1 1 2 2 1 2 2 2 2 2 2 2 2 2 1
6 6 6 6 5 5 5 4 4 4 4 3 3 3 3 3 3 3 3 2 2 2 2 2 2 1 1 1 1 1 1 1 2 1 2 2 2 2 2 2 2 2 2 2
4 4 4 4 5 5 4 4 4 3 4 3 3 3 3 3 4 4 3 2 2 2 2 1 1 1 1 1 1 1 1 1 1 1 1 2 2 2 2 2 2 2 2 1
4 4 4 4 4 4 4 4 3 3 3 3 3 3 3 3 3 3 3 3 3 3 2 1 2 1 1 1 1 1 1 1 1 1 1 2 2 1 2 2 2 2 1 1
4 4 3 3 3 3 4 3 3 3 3 3 3 3 3 3 3 3 2 3 3 2 1 1 1 1 1 1 1 1 1 1 1 1 1 1 2 2 1 3 2 1 1 1
4 4 4 4 4 3 3 3 3 3 3 3 3 3 3 3 2 2 3 4 2 1 1 2 1 1 1 1 1 1 1 1 1 1 1 2 2 1 1 1 1 1 1 1
4 4 4 4 4 4 3 3 3 3 3 3 3 3 3 3 2 2 2 3 2 5 1 1 1 1 1 1 1 1 1 1 1 1 1 1 1 1 1 1 1 1 1 1
4 4 4 4 4 3 3 3 2 3 3 3 3 3 3 3 3 4 4 2 1 4 1 1 2 4 4 1 1 1 1 1 1 1 1 1 1 1 1 1 1 1 1 1
3 3 3 3 3 3 4 3 3 3 2 2 3 2 2 3 2 1 1 3 5 4 1 1 2 5 4 1 1 1 1 1 1 1 1 5 1 1 1 1 1 1 0 1
3 3 3 4 4 4 3 3 3 2 2 2 2 2 1 1 2 2 1 1 5 3 1 4 6 5 1 1 1 1 1 1 1 1 1 1 1 1 1 0 0 0 0 0
4 3 3 3 3 3 3 3 4 3 3 3 2 2 2 1 1 1 1 2 1 3 1 1 1 1 1 1 1 1 1 1 1 1 1 1 0 1 0 0 0 0 0 0
3 5 3 3 3 2 3 3 3 3 3 3 3 2 2 2 2 2 3 1 1 1 1 1 1 1 1 1 1 0 0 0 2 0 0 0 0 0 0 0 -0 -0 -0 -0